User: anonymous   Login
Location: Pacheco
(37.9835°N, 122.0752°W)
Time: 04:27:00
(UTC+00:00)
Language:

DMSP B5D2-2 - Orbit

View from above orbital plane
View from above orbital plane
View from above satellite
View from above satellite

Ground track
Ground track

The orbit data is extracted from the following two-line orbital elements,

1 14506U 83113A   24174.47236973  .00000364  00000-0  16026-3 0  9992
2 14506  98.3311 336.6515 0010446 206.3745 219.7552 14.28942630111951
Epoch (UTC): 22 June 2024 11:20:12
Eccentricity: 0.0010446
inclination: 98.3311°
perigee height: 788 km
apogee height: 803 km
right ascension of ascending node: 336.6515°
argument of perigee: 206.3745°
revolutions per day: 14.28942630
mean anomaly at epoch: 219.7552°
orbit number at epoch: 11195

The dashed part of the orbit path shows where the satellite is in the earth's shadow,  

DLR